Lee's Summit, MO

6:24 PM CDT on August 31, 2016 (GMT -0500)
Lee's Summit Municipal

Weather History for KLXT - March, 2014

Change the Weather History Date:

Monday, March 10, 2014

  Actual Average (KMKC) Record (KMKC)
Temperature  
Mean Temperature 58 °F -  
Max Temperature 73 °F 48 °F 75 °F (2014)
Min Temperature 44 °F 29 °F 8 °F (1998)
Degree Days  
Heating Degree Days 6    
Growing Degree Days 8 (Base 50)    
Moisture  
Dew Point 27 °F    
Average Humidity 34    
Maximum Humidity 51    
Minimum Humidity 20    
Precipitation  
Precipitation 0.00 in - - ()
Sea Level Pressure  
Sea Level Pressure 29.80 in    
Wind  
Wind Speed 14 mph (SW)    
Max Wind Speed 18 mph    
Max Gust Speed 23 mph    
Visibility 10 miles    
Events      
Averages and records for this station are not official NWS values.
T = Trace of Precipitation, MM = Missing Value Source: NWS Daily Summary

Daily Weather History Graph

Daily Weather History Graph

Search for Another Location

Airport or City:

Trip Planner

Search our weather history database for the weather conditions in past years. The results will help you decide how hot, cold, wet, or windy it might be!

Date:

Astronomy

Mar. 10, 2014 Rise Set
Actual Time 7:36 AM CDT 7:19 PM CDT
Civil Twilight 7:09 AM CDT 7:46 PM CDT
Nautical Twilight 6:39 AM CDT 8:17 PM CDT
Astronomical Twilight 6:07 AM CDT 8:48 PM CDT
Moon 2:05 PM CDT (3/10) 3:46 AM CDT (3/10)
Length of Visible Light 12h 36m
Length of Day
11h 43m
Waxing Gibbous, 70% of the Moon is Illuminated
Mar 10
Waxing Gibbous
Mar 16
Full
Mar 23
Last Quarter
Mar 30
New
Apr 7
First Quarter

Hourly Weather History & Observations

Time (CDT) Temp. Windchill Dew Point Humidity Pressure Visibility Wind Dir Wind Speed Gust Speed Precip Events Conditions
12:53 AM 46.9 °F - 27.0 °F 46% 29.97 in 10.0 mi SW 18.4 mph - N/A   Clear
1:53 AM 46.9 °F - 25.0 °F 42% 29.95 in 10.0 mi SW 17.3 mph - N/A   Clear
2:53 AM 46.0 °F 39.6 °F 23.0 °F 40% 29.93 in 10.0 mi SW 15.0 mph - N/A   Clear
3:53 AM 45.0 °F 38.2 °F 24.1 °F 44% 29.90 in 10.0 mi SW 15.0 mph - N/A   Clear
4:53 AM 44.1 °F 37.4 °F 27.0 °F 51% 29.88 in 10.0 mi SW 13.8 mph - N/A   Clear
5:53 AM 45.0 °F 38.5 °F 27.0 °F 49% 29.86 in 10.0 mi SW 13.8 mph - N/A   Clear
6:53 AM 44.1 °F 37.1 °F 27.0 °F 51% 29.86 in 10.0 mi SW 15.0 mph - N/A   Clear
7:53 AM 44.1 °F 37.1 °F 26.1 °F 49% 29.86 in 10.0 mi SW 15.0 mph - N/A   Clear
8:53 AM 48.0 °F - 25.0 °F 41% 29.86 in 10.0 mi SW 13.8 mph 23.0 mph N/A   Clear
9:53 AM 51.1 °F - 25.0 °F 36% 29.86 in 10.0 mi SW 17.3 mph - N/A   Clear
10:53 AM 55.9 °F - 26.1 °F 32% 29.84 in 10.0 mi WSW 12.7 mph - N/A   Clear
11:53 AM 61.0 °F - 27.0 °F 27% 29.83 in 10.0 mi SW 10.4 mph - N/A   Clear
12:53 PM 64.0 °F - 28.0 °F 26% 29.81 in 10.0 mi WSW 10.4 mph - N/A   Clear
1:53 PM 66.9 °F - 30.0 °F 25% 29.79 in 10.0 mi SW 12.7 mph - N/A   Clear
2:53 PM 70.0 °F - 30.0 °F 23% 29.75 in 10.0 mi SSW 13.8 mph 20.7 mph N/A   Clear
3:53 PM 72.0 °F - 30.0 °F 21% 29.74 in 10.0 mi WSW 12.7 mph - N/A   Clear
4:53 PM 73.0 °F - 30.0 °F 20% 29.72 in 10.0 mi SW 13.8 mph - N/A   Clear
5:53 PM 71.1 °F - 30.0 °F 22% 29.71 in 10.0 mi WSW 6.9 mph - N/A   Clear
6:53 PM 70.0 °F - 30.9 °F 24% 29.70 in 10.0 mi South 4.6 mph - N/A   Clear
7:53 PM 66.9 °F - 30.9 °F 26% 29.70 in 10.0 mi South 5.8 mph - N/A   Clear
8:53 PM 64.0 °F - 30.0 °F 28% 29.71 in 10.0 mi South 6.9 mph - N/A   Clear
9:53 PM 63.0 °F - 28.0 °F 27% 29.69 in 10.0 mi South 9.2 mph - N/A   Clear
10:53 PM 62.1 °F - 25.0 °F 24% 29.68 in 10.0 mi SSW 9.2 mph - N/A   Clear
11:53 PM 57.0 °F - 26.1 °F 30% 29.68 in 10.0 mi SSW 9.2 mph - N/A   Clear